Regional Weather Roundup
Issued by NWS Sioux Falls, SD

Home | Current Version | Previous Version | Graphics & Text | Print | Product List | Glossary On
Versions: 1 2 3 4 5 6 7 8 9 10 11 12 13 14 15 16 17 18 19 20 21 22 23 24 25 26 27 28 29 30 31 32 33 34 35 36 37 38 39 40 41 42 43 44 45 46 47 48 49 50
000
ASUS43 KFSD 261702
RWRFSD

WEATHER ROUNDUP FOR SE SOUTH DAKOTA/SW MINNESOTA/NW IOWA
NATIONAL WEATHER SERVICE SIOUX FALLS SD
1200 PM CDT TUE SEP 26 2017

NOTE: "FAIR" INDICATES FEW OR NO CLOUDS BELOW 12,000 FEET WITH NO
SIGNIFICANT WEATHER AND OR OBSTRUCTIONS TO VISIBILITY.


SDZ038>040-050-052>070-261800-
SOUTHEAST SOUTH DAKOTA

CITY           SKY/WX    TMP DP  RH WIND       PRES   REMARKS
BROOKINGS        N/A     52  47  83 NW12      30.11S
CHAMBERLAIN    MOSUNNY   58  50  74 CALM      30.16S
HURON          PTSUNNY   56  46  69 NW14      30.14S
MADISON        CLOUDY    50  50 100 NW12G17   30.13R
MITCHELL       PTSUNNY   57  46  66 N9G17     30.16R
SIOUX FALLS    CLOUDY    56  51  84 NW12      30.12S
WINNER         FAIR      59  47  64 CALM      30.16S
YANKTON        CLOUDY    54  47  77 NW12      30.15S
$$

MNZ071-072-080-081-089-090-097-098-261800-
SOUTHWEST MINNESOTA

CITY           SKY/WX    TMP DP  RH WIND       PRES   REMARKS
FAIRMONT       CLOUDY    58  52  80 NW17G24   30.06S
JACKSON        CLOUDY    55  50  82 NW13      30.08S
LUVERNE        CLOUDY    54  46  76 NW15      30.11S
MARSHALL       NOT AVBL
MONTEVIDEO     CLOUDY    59  59 100 NW10G16   30.07R
PIPESTONE      CLOUDY    54  48  82 N8        30.10S
REDWOOD FALLS  PTSUNNY   59  51  75 NW12      30.05S
TRACY          CLOUDY    60  53  78 NW9       30.08S
WINDOM         SUNNY     59  52  77 NW13G18   30.07S
WORTHINGTON    CLOUDY    59  51  75 NW12      30.09S
$$

IAZ001>003-012>014-020>022-031-032-NEZ013-014-SDZ071-261800-
NORTHWEST IOWA

CITY           SKY/WX    TMP DP  RH WIND       PRES   REMARKS
CHEROKEE       CLOUDY    56  53  90 NW9       30.11S
DENISON        CLOUDY    55  52  88 NW13      30.13R
ESTHERVILLE    CLOUDY    58  53  84 NW12      30.07R
LE MARS        CLOUDY    55  50  82 W8G14     30.13S
ORANGE CITY    CLOUDY    55  54  94 NW10      30.12S
SHELDON        CLOUDY    55  50  82 NW9G16    30.10R
SIOUX CITY     CLOUDY    54  51  90 NW14      30.14R
SPENCER        CLOUDY    59  52  77 NW13      30.09R
STORM LAKE       N/A     57  52  82 NW16      30.10R
$$

ABBREVIATIONS USED IN REMARKS
   TC - TEMPERATURE IN CELSIUS
  WCI - WIND CHILL INDEX
   HX - HEAT INDEX
  VSB - VISIBILITY





USA.gov is the U.S. government's official web portal to all federal, state and local government web resources and services.